Year,Month,Day,Hour,Minute,Value (Times are PST for temperature in C)
2010,10,16,00,00,3.90
2010,10,16,00,01,3.90
2010,10,16,00,02,3.90
2010,10,16,00,03,3.90
2010,10,16,00,04,3.90
2010,10,16,00,05,3.90
2010,10,16,00,06,3.80
2010,10,16,00,07,3.80
2010,10,16,00,08,3.80
2010,10,16,00,09,3.80
2010,10,16,00,10,3.80
2010,10,16,00,11,3.80
2010,10,16,00,12,3.80
2010,10,16,00,13,3.80
2010,10,16,00,14,3.80
2010,10,16,00,15,3.80
2010,10,16,00,16,3.80
2010,10,16,00,17,3.80
2010,10,16,00,18,3.80
2010,10,16,00,19,3.80
2010,10,16,00,20,3.80
2010,10,16,00,21,3.80
2010,10,16,00,22,3.80
2010,10,16,00,23,3.80
2010,10,16,00,24,3.80
2010,10,16,00,25,3.80
2010,10,16,00,26,3.80
2010,10,16,00,27,3.80
2010,10,16,00,28,3.70
2010,10,16,00,29,3.70
2010,10,16,00,30,3.70
2010,10,16,00,31,3.70
2010,10,16,00,32,3.70
2010,10,16,00,33,3.70
2010,10,16,00,34,3.70
2010,10,16,00,35,3.60
2010,10,16,00,36,3.60
2010,10,16,00,37,3.60
2010,10,16,00,38,3.60
2010,10,16,00,39,3.60
2010,10,16,00,40,3.60
2010,10,16,00,41,3.60
2010,10,16,00,42,3.60
2010,10,16,00,43,3.60
2010,10,16,00,44,3.60
2010,10,16,00,45,3.50
2010,10,16,00,46,3.50
2010,10,16,00,47,3.50
2010,10,16,00,48,3.50
2010,10,16,00,49,3.50
2010,10,16,00,50,3.50
2010,10,16,00,51,3.50
2010,10,16,00,52,3.50
2010,10,16,00,53,3.50
2010,10,16,00,54,3.50
2010,10,16,00,55,3.40
2010,10,16,00,56,3.40
2010,10,16,00,57,3.40
2010,10,16,00,58,3.40
2010,10,16,00,59,3.40
2010,10,16,01,00,3.40
2010,10,16,01,01,3.40
2010,10,16,01,02,3.40
2010,10,16,01,03,3.40
2010,10,16,01,04,3.40
2010,10,16,01,05,3.40
2010,10,16,01,06,3.40
2010,10,16,01,07,3.40
2010,10,16,01,08,3.40
2010,10,16,01,09,3.40
2010,10,16,01,10,3.40
2010,10,16,01,11,3.40
2010,10,16,01,12,3.40
2010,10,16,01,13,3.40
2010,10,16,01,14,3.50
2010,10,16,01,15,3.50
2010,10,16,01,16,3.60
2010,10,16,01,17,3.60
2010,10,16,01,18,3.70
2010,10,16,01,19,3.70
2010,10,16,01,20,3.70
2010,10,16,01,21,3.70
2010,10,16,01,22,3.70
2010,10,16,01,23,3.80
2010,10,16,01,24,3.80
2010,10,16,01,25,3.80
2010,10,16,01,26,3.80
2010,10,16,01,27,3.90
2010,10,16,01,28,3.90
2010,10,16,01,29,3.90
2010,10,16,01,30,3.90
2010,10,16,01,31,3.90
2010,10,16,01,32,3.90
2010,10,16,01,33,3.90
2010,10,16,01,34,3.90
2010,10,16,01,35,3.90
2010,10,16,01,36,3.90
2010,10,16,01,37,3.90
2010,10,16,01,38,3.80
2010,10,16,01,39,3.80
2010,10,16,01,40,3.70
2010,10,16,01,41,3.70
2010,10,16,01,42,3.70
2010,10,16,01,43,3.70
2010,10,16,01,44,3.70
2010,10,16,01,45,3.60
2010,10,16,01,46,3.60
2010,10,16,01,47,3.50
2010,10,16,01,48,3.50
2010,10,16,01,49,3.50
2010,10,16,01,50,3.40
2010,10,16,01,51,3.40
2010,10,16,01,52,3.40
2010,10,16,01,53,3.40
2010,10,16,01,54,3.30
2010,10,16,01,55,3.30
2010,10,16,01,56,3.30
2010,10,16,01,57,3.30
2010,10,16,01,58,3.30
2010,10,16,01,59,3.30
2010,10,16,02,00,3.30
2010,10,16,02,01,3.30
2010,10,16,02,02,3.20
2010,10,16,02,03,3.20
2010,10,16,02,04,3.20
2010,10,16,02,05,3.20
2010,10,16,02,06,3.20
2010,10,16,02,07,3.20
2010,10,16,02,08,3.20
2010,10,16,02,09,3.20
2010,10,16,02,10,3.30
2010,10,16,02,11,3.30
2010,10,16,02,12,3.30
2010,10,16,02,13,3.30
2010,10,16,02,14,3.30
2010,10,16,02,15,3.40
2010,10,16,02,16,3.40
2010,10,16,02,17,3.40
2010,10,16,02,18,3.40
2010,10,16,02,19,3.40
2010,10,16,02,20,3.40
2010,10,16,02,21,3.40
2010,10,16,02,22,3.50
2010,10,16,02,23,3.50
2010,10,16,02,24,3.50
2010,10,16,02,25,3.50
2010,10,16,02,26,3.40
2010,10,16,02,27,3.40
2010,10,16,02,28,3.40
2010,10,16,02,29,3.40
2010,10,16,02,30,3.40
2010,10,16,02,31,3.30
2010,10,16,02,32,3.30
2010,10,16,02,33,3.20
2010,10,16,02,34,3.20
2010,10,16,02,35,3.10
2010,10,16,02,36,3.10
2010,10,16,02,37,3.00
2010,10,16,02,38,2.90
2010,10,16,02,39,2.90
2010,10,16,02,40,2.80
2010,10,16,02,41,2.80
2010,10,16,02,42,2.80
2010,10,16,02,43,2.70
2010,10,16,02,44,2.70
2010,10,16,02,45,2.70
2010,10,16,02,46,2.70
2010,10,16,02,47,2.70
2010,10,16,02,48,2.70
2010,10,16,02,49,2.70
2010,10,16,02,50,2.70
2010,10,16,02,51,2.70
2010,10,16,02,52,2.70
2010,10,16,02,53,2.70
2010,10,16,02,54,2.70
2010,10,16,02,55,2.80
2010,10,16,02,56,2.80
2010,10,16,02,57,2.80
2010,10,16,02,58,2.80
2010,10,16,02,59,2.80
2010,10,16,03,00,2.80
2010,10,16,03,01,2.90
2010,10,16,03,02,2.90
2010,10,16,03,06,3.00
2010,10,16,03,07,3.00
2010,10,16,03,08,3.00
2010,10,16,03,09,3.00
2010,10,16,03,10,2.90
2010,10,16,03,11,2.90
2010,10,16,03,12,2.90
2010,10,16,03,13,2.90
2010,10,16,03,14,2.90
2010,10,16,03,15,2.90
2010,10,16,03,16,2.90
2010,10,16,03,17,2.80
2010,10,16,03,18,2.80
2010,10,16,03,19,2.80
2010,10,16,03,20,2.80
2010,10,16,03,21,2.80
2010,10,16,03,22,2.80
2010,10,16,03,23,2.90
2010,10,16,03,24,2.90
2010,10,16,03,25,2.90
2010,10,16,03,26,2.90
2010,10,16,03,27,2.90
2010,10,16,03,28,2.90
2010,10,16,03,29,2.90
2010,10,16,03,30,2.90
2010,10,16,03,31,2.90
2010,10,16,03,32,2.80
2010,10,16,03,33,2.80
2010,10,16,03,34,2.70
2010,10,16,03,35,2.70
2010,10,16,03,36,2.60
2010,10,16,03,37,2.60
2010,10,16,03,38,2.50
2010,10,16,03,39,2.40
2010,10,16,03,40,2.40
2010,10,16,03,41,2.40
2010,10,16,03,42,2.30
2010,10,16,03,43,2.30
2010,10,16,03,44,2.30
2010,10,16,03,45,2.20
2010,10,16,03,46,2.20
2010,10,16,03,47,2.20
2010,10,16,03,48,2.20
2010,10,16,03,49,2.10
2010,10,16,03,50,2.10
2010,10,16,03,51,2.10
2010,10,16,03,52,2.10
2010,10,16,03,53,2.20
2010,10,16,03,54,2.20
2010,10,16,03,55,2.20
2010,10,16,03,56,2.30
2010,10,16,03,57,2.30
2010,10,16,03,58,2.30
2010,10,16,03,59,2.30
2010,10,16,04,00,2.30
2010,10,16,04,01,2.30
2010,10,16,04,02,2.30
2010,10,16,04,03,2.30
2010,10,16,04,04,2.30
2010,10,16,04,05,2.30
2010,10,16,04,06,2.30
2010,10,16,04,07,2.30
2010,10,16,04,08,2.30
2010,10,16,04,09,2.40
2010,10,16,04,10,2.40
2010,10,16,04,11,2.40
2010,10,16,04,12,2.40
2010,10,16,04,13,2.40
2010,10,16,04,14,2.40
2010,10,16,04,15,2.50
2010,10,16,04,16,2.50
2010,10,16,04,17,2.50
2010,10,16,04,18,2.50
2010,10,16,04,19,2.50
2010,10,16,04,20,2.50
2010,10,16,04,21,2.60
2010,10,16,04,22,2.70
2010,10,16,04,23,2.70
2010,10,16,04,24,2.70
2010,10,16,04,25,2.60
2010,10,16,04,26,2.60
2010,10,16,04,27,2.50
2010,10,16,04,28,2.50
2010,10,16,04,29,2.40
2010,10,16,04,30,2.40
2010,10,16,04,31,2.40
2010,10,16,04,32,2.40
2010,10,16,04,33,2.30
2010,10,16,04,34,2.30
2010,10,16,04,35,2.30
2010,10,16,04,36,2.20
2010,10,16,04,37,2.20
2010,10,16,04,38,2.20
2010,10,16,04,39,2.10
2010,10,16,04,40,2.10
2010,10,16,04,41,2.00
2010,10,16,04,42,2.00
2010,10,16,04,43,1.90
2010,10,16,04,44,1.90
2010,10,16,04,45,1.90
2010,10,16,04,46,1.90
2010,10,16,04,47,1.90
2010,10,16,04,48,1.90
2010,10,16,04,49,1.90
2010,10,16,04,50,1.80
2010,10,16,04,51,1.80
2010,10,16,04,52,1.80
2010,10,16,04,53,1.80
2010,10,16,04,54,1.80
2010,10,16,04,55,1.80
2010,10,16,04,56,1.70
2010,10,16,04,57,1.70
2010,10,16,04,58,1.70
2010,10,16,04,59,1.70
2010,10,16,05,00,1.70
2010,10,16,05,01,1.70
2010,10,16,05,02,1.70
2010,10,16,05,03,1.70
2010,10,16,05,04,1.70
2010,10,16,05,05,1.70
2010,10,16,05,06,1.70
2010,10,16,05,07,1.80
2010,10,16,05,08,1.80
2010,10,16,05,09,1.80
2010,10,16,05,10,1.90
2010,10,16,05,11,1.90
2010,10,16,05,12,1.90
2010,10,16,05,13,1.90
2010,10,16,05,14,1.90
2010,10,16,05,15,1.90
2010,10,16,05,16,1.90
2010,10,16,05,17,2.00
2010,10,16,05,18,2.00
2010,10,16,05,19,2.10
2010,10,16,05,20,2.10
2010,10,16,05,21,2.20
2010,10,16,05,22,2.30
2010,10,16,05,23,2.30
2010,10,16,05,24,2.40
2010,10,16,05,25,2.40
2010,10,16,05,26,2.50
2010,10,16,05,27,2.50
2010,10,16,05,28,2.50
2010,10,16,05,29,2.60
2010,10,16,05,30,2.60
2010,10,16,05,31,2.60
2010,10,16,05,32,2.70
2010,10,16,05,33,2.70
2010,10,16,05,34,2.70
2010,10,16,05,35,2.70
2010,10,16,05,36,2.70
2010,10,16,05,37,2.60
2010,10,16,05,38,2.60
2010,10,16,05,39,2.60
2010,10,16,05,40,2.50
2010,10,16,05,41,2.40
2010,10,16,05,42,2.40
2010,10,16,05,43,2.40
2010,10,16,05,44,2.40
2010,10,16,05,45,2.30
2010,10,16,05,46,2.30
2010,10,16,05,47,2.30
2010,10,16,05,48,2.30
2010,10,16,05,49,2.30
2010,10,16,05,50,2.20
2010,10,16,05,51,2.20
2010,10,16,05,52,2.10
2010,10,16,05,53,2.10
2010,10,16,05,54,2.10
2010,10,16,05,55,2.10
2010,10,16,05,56,2.10
2010,10,16,05,57,2.10
2010,10,16,05,58,2.00
2010,10,16,05,59,2.00
2010,10,16,06,00,2.00
2010,10,16,06,01,2.00
2010,10,16,06,02,2.00
2010,10,16,06,03,2.00
2010,10,16,06,04,1.90
2010,10,16,06,05,1.90
2010,10,16,06,06,2.00
2010,10,16,06,07,2.00
2010,10,16,06,08,2.00
2010,10,16,06,09,2.00
2010,10,16,06,10,2.00
2010,10,16,06,11,2.00
2010,10,16,06,12,2.10
2010,10,16,06,13,2.20
2010,10,16,06,14,2.20
2010,10,16,06,15,2.30
2010,10,16,06,16,2.40
2010,10,16,06,17,2.40
2010,10,16,06,18,2.40
2010,10,16,06,19,2.30
2010,10,16,06,20,2.30
2010,10,16,06,21,2.30
2010,10,16,06,22,2.30
2010,10,16,06,23,2.30
2010,10,16,06,24,2.30
2010,10,16,06,25,2.30
2010,10,16,06,26,2.30
2010,10,16,06,27,2.20
2010,10,16,06,28,2.20
2010,10,16,06,29,2.20
2010,10,16,06,30,2.10
2010,10,16,06,31,2.10
2010,10,16,06,32,2.10
2010,10,16,06,33,2.00
2010,10,16,06,34,2.00
2010,10,16,06,35,1.90
2010,10,16,06,36,1.90
2010,10,16,06,37,2.00
2010,10,16,06,38,2.00
2010,10,16,06,39,2.00
2010,10,16,06,40,2.00
2010,10,16,06,41,2.00
2010,10,16,06,42,2.00
2010,10,16,06,43,2.00
2010,10,16,06,44,1.90
2010,10,16,06,45,1.90
2010,10,16,06,46,1.90
2010,10,16,06,47,1.90
2010,10,16,06,48,1.90
2010,10,16,06,49,1.90
2010,10,16,06,50,1.90
2010,10,16,06,51,2.00
2010,10,16,06,52,2.00
2010,10,16,06,53,2.10
2010,10,16,06,54,2.20
2010,10,16,06,55,2.20
2010,10,16,06,56,2.20
2010,10,16,06,57,2.30
2010,10,16,06,58,2.30
2010,10,16,06,59,2.30
2010,10,16,07,00,2.40
2010,10,16,07,01,2.40
2010,10,16,07,02,2.40
2010,10,16,07,03,2.50
2010,10,16,07,04,2.40
2010,10,16,07,05,2.40
2010,10,16,07,06,2.40
2010,10,16,07,07,2.40
2010,10,16,07,08,2.30
2010,10,16,07,09,2.20
2010,10,16,07,10,2.20
2010,10,16,07,11,2.10
2010,10,16,07,12,2.10
2010,10,16,07,13,2.00
2010,10,16,07,14,2.00
2010,10,16,07,15,1.90
2010,10,16,07,16,1.90
2010,10,16,07,17,1.90
2010,10,16,07,18,1.90
2010,10,16,07,19,2.00
2010,10,16,07,20,2.00
2010,10,16,07,21,2.00
2010,10,16,07,22,2.00
2010,10,16,07,23,2.00
2010,10,16,07,24,1.90
2010,10,16,07,25,1.90
2010,10,16,07,26,1.90
2010,10,16,07,27,1.90
2010,10,16,07,28,1.90
2010,10,16,07,29,1.90
2010,10,16,07,30,1.90
2010,10,16,07,31,1.90
2010,10,16,07,32,2.00
2010,10,16,07,33,2.00
2010,10,16,07,34,2.00
2010,10,16,07,35,2.00
2010,10,16,07,36,2.00
2010,10,16,07,37,2.00
2010,10,16,07,38,2.00
2010,10,16,07,39,2.00
2010,10,16,07,40,2.10
2010,10,16,07,41,2.10
2010,10,16,07,42,2.10
2010,10,16,07,43,2.10
2010,10,16,07,44,2.10
2010,10,16,07,45,2.00
2010,10,16,07,46,2.00
2010,10,16,07,47,2.00
2010,10,16,07,48,1.90
2010,10,16,07,49,1.90
2010,10,16,07,50,1.90
2010,10,16,07,51,1.90
2010,10,16,07,52,1.80
2010,10,16,07,53,1.90
2010,10,16,07,54,1.90
2010,10,16,07,55,2.00
2010,10,16,07,56,2.00
2010,10,16,07,57,2.10
2010,10,16,07,58,2.20
2010,10,16,07,59,2.20
2010,10,16,08,00,2.30
2010,10,16,08,01,2.30
2010,10,16,08,02,2.40
2010,10,16,08,03,2.50
2010,10,16,08,04,2.50
2010,10,16,08,05,2.60
2010,10,16,08,06,2.70
2010,10,16,08,07,2.70
2010,10,16,08,08,2.70
2010,10,16,08,09,2.80
2010,10,16,08,10,2.80
2010,10,16,08,11,2.80
2010,10,16,08,12,2.80
2010,10,16,08,13,2.80
2010,10,16,08,14,2.80
2010,10,16,08,15,2.80
2010,10,16,08,16,2.90
2010,10,16,08,17,2.90
2010,10,16,08,18,2.90
2010,10,16,08,19,2.90
2010,10,16,08,20,2.90
2010,10,16,08,21,2.80
2010,10,16,08,22,2.80
2010,10,16,08,23,2.80
2010,10,16,08,24,2.80
2010,10,16,08,25,2.80
2010,10,16,08,26,2.80
2010,10,16,08,27,2.90
2010,10,16,08,28,2.90
2010,10,16,08,29,3.00
2010,10,16,08,30,3.10
2010,10,16,08,31,3.10
2010,10,16,08,32,3.20
2010,10,16,08,33,3.30
2010,10,16,08,34,3.40
2010,10,16,08,35,3.40
2010,10,16,08,36,3.50
2010,10,16,08,37,3.50
2010,10,16,08,38,3.60
2010,10,16,08,39,3.60
2010,10,16,08,40,3.70
2010,10,16,08,41,3.80
2010,10,16,08,42,3.80
2010,10,16,08,43,3.90
2010,10,16,08,44,3.90
2010,10,16,08,45,3.90
2010,10,16,08,46,3.90
2010,10,16,08,47,4.00
2010,10,16,08,48,4.00
2010,10,16,08,49,4.00
2010,10,16,08,50,4.10
2010,10,16,08,51,4.10
2010,10,16,08,52,4.10
2010,10,16,08,53,4.20
2010,10,16,08,54,4.20
2010,10,16,08,55,4.20
2010,10,16,08,56,4.30
2010,10,16,08,57,4.40
2010,10,16,08,58,4.50
2010,10,16,08,59,4.60
2010,10,16,09,00,4.70
2010,10,16,09,01,4.80
2010,10,16,09,02,4.80
2010,10,16,09,03,4.90
2010,10,16,09,04,5.00
2010,10,16,09,05,5.10
2010,10,16,09,06,5.10
2010,10,16,09,07,5.20
2010,10,16,09,08,5.30
2010,10,16,09,09,5.40
2010,10,16,09,10,5.60
2010,10,16,09,11,5.70
2010,10,16,09,12,5.90
2010,10,16,09,13,6.10
2010,10,16,09,14,6.20
2010,10,16,09,15,6.30
2010,10,16,09,16,6.40
2010,10,16,09,17,6.60
2010,10,16,09,18,6.60
2010,10,16,09,19,6.70
2010,10,16,09,20,6.80
2010,10,16,09,21,6.90
2010,10,16,09,22,6.90
2010,10,16,09,23,7.00
2010,10,16,09,24,7.00
2010,10,16,09,25,7.10
2010,10,16,09,26,7.20
2010,10,16,09,27,7.20
2010,10,16,09,28,7.20
2010,10,16,09,29,7.30
2010,10,16,09,30,7.30
2010,10,16,09,31,7.40
2010,10,16,09,32,7.60
2010,10,16,09,33,7.60
2010,10,16,09,34,7.70
2010,10,16,09,35,7.80
2010,10,16,09,36,7.90
2010,10,16,09,37,8.00
2010,10,16,09,38,8.10
2010,10,16,09,39,8.20
2010,10,16,09,40,8.20
2010,10,16,09,41,8.30
2010,10,16,09,42,8.40
2010,10,16,09,43,8.40
2010,10,16,09,44,8.50
2010,10,16,09,45,8.50
2010,10,16,09,46,8.60
2010,10,16,09,47,8.70
2010,10,16,09,48,8.80
2010,10,16,09,49,8.80
2010,10,16,09,50,8.90
2010,10,16,09,51,8.90
2010,10,16,09,52,9.00
2010,10,16,09,53,9.10
2010,10,16,09,54,9.10
2010,10,16,09,55,9.20
2010,10,16,09,56,9.20
2010,10,16,09,57,9.20
2010,10,16,09,58,9.30
2010,10,16,09,59,9.30
2010,10,16,10,00,9.30
2010,10,16,10,01,9.40
2010,10,16,10,02,9.50
2010,10,16,10,03,9.50
2010,10,16,10,04,9.60
2010,10,16,10,05,9.60
2010,10,16,10,06,9.60
2010,10,16,10,07,9.70
2010,10,16,10,08,9.70
2010,10,16,10,09,9.70
2010,10,16,10,10,9.70
2010,10,16,10,11,9.80
2010,10,16,10,12,9.80
2010,10,16,10,13,9.90
2010,10,16,10,14,9.90
2010,10,16,10,15,10.00
2010,10,16,10,16,10.00
2010,10,16,10,17,10.00
2010,10,16,10,18,10.10
2010,10,16,10,19,10.10
2010,10,16,10,20,10.10
2010,10,16,10,21,10.20
2010,10,16,10,22,10.20
2010,10,16,10,23,10.20
2010,10,16,10,24,10.30
2010,10,16,10,25,10.30
2010,10,16,10,26,10.30
2010,10,16,10,27,10.30
2010,10,16,10,28,10.30
2010,10,16,10,29,10.40
2010,10,16,10,30,10.40
2010,10,16,10,31,10.40
2010,10,16,10,32,10.40
2010,10,16,10,33,10.40
2010,10,16,10,34,10.50
2010,10,16,10,35,10.50
2010,10,16,10,36,10.50
2010,10,16,10,37,10.50
2010,10,16,10,38,10.60
2010,10,16,10,39,10.60
2010,10,16,10,40,10.60
2010,10,16,10,41,10.60
2010,10,16,10,42,10.70
2010,10,16,10,43,10.70
2010,10,16,10,44,10.70
2010,10,16,10,45,10.80
2010,10,16,10,46,10.80
2010,10,16,10,47,10.80
2010,10,16,10,48,10.80
2010,10,16,10,49,10.90
2010,10,16,10,50,10.90
2010,10,16,10,51,10.90
2010,10,16,10,52,10.90
2010,10,16,10,53,11.00
2010,10,16,10,54,11.00
2010,10,16,10,55,11.10
2010,10,16,10,56,11.10
2010,10,16,10,57,11.20
2010,10,16,10,58,11.20
2010,10,16,10,59,11.20
2010,10,16,11,00,11.20
2010,10,16,11,01,11.20
2010,10,16,11,02,11.20
2010,10,16,11,03,11.20
2010,10,16,11,04,11.20
2010,10,16,11,05,11.20
2010,10,16,11,06,11.20
2010,10,16,11,07,11.30
2010,10,16,11,08,11.30
2010,10,16,11,09,11.30
2010,10,16,11,10,11.30
2010,10,16,11,11,11.30
2010,10,16,11,12,11.30
2010,10,16,11,13,11.40
2010,10,16,11,14,11.40
2010,10,16,11,15,11.40
2010,10,16,11,16,11.50
2010,10,16,11,17,11.50
2010,10,16,11,18,11.60
2010,10,16,11,19,11.60
2010,10,16,11,20,11.60
2010,10,16,11,21,11.60
2010,10,16,11,22,11.60
2010,10,16,11,23,11.60
2010,10,16,11,24,11.70
2010,10,16,11,25,11.70
2010,10,16,11,26,11.80
2010,10,16,11,27,11.90
2010,10,16,11,28,11.90
2010,10,16,11,29,12.00
2010,10,16,11,30,12.00
2010,10,16,11,31,12.00
2010,10,16,11,32,12.00
2010,10,16,11,33,12.00
2010,10,16,11,34,12.10
2010,10,16,11,35,12.10
2010,10,16,11,36,12.10
2010,10,16,11,37,12.10
2010,10,16,11,38,12.10
2010,10,16,11,39,12.10
2010,10,16,11,40,12.20
2010,10,16,11,41,12.20
2010,10,16,11,42,12.20
2010,10,16,11,43,12.20
2010,10,16,11,44,12.30
2010,10,16,11,45,12.30
2010,10,16,11,46,12.30
2010,10,16,11,47,12.30
2010,10,16,11,48,12.30
2010,10,16,11,49,12.30
2010,10,16,11,50,12.40
2010,10,16,11,51,12.50
2010,10,16,11,52,12.50
2010,10,16,11,53,12.50
2010,10,16,11,54,12.60
2010,10,16,11,55,12.60
2010,10,16,11,56,12.60
2010,10,16,11,57,12.60
2010,10,16,11,58,12.70
2010,10,16,11,59,12.70
2010,10,16,12,00,12.70
2010,10,16,12,01,12.70
2010,10,16,12,02,12.60
2010,10,16,12,03,12.60
2010,10,16,12,04,12.70
2010,10,16,12,05,12.70
2010,10,16,12,06,12.70
2010,10,16,12,07,12.70
2010,10,16,12,08,12.70
2010,10,16,12,09,12.70
2010,10,16,12,10,12.70
2010,10,16,12,11,12.70
2010,10,16,12,12,12.70
2010,10,16,12,13,12.70
2010,10,16,12,14,12.70
2010,10,16,12,15,12.70
2010,10,16,12,16,12.70
2010,10,16,12,17,12.70
2010,10,16,12,18,12.70
2010,10,16,12,19,12.70
2010,10,16,12,20,12.80
2010,10,16,12,21,12.80
2010,10,16,12,22,12.80
2010,10,16,12,23,12.90
2010,10,16,12,24,12.90
2010,10,16,12,25,12.90
2010,10,16,12,26,12.90
2010,10,16,12,27,13.00
2010,10,16,12,28,13.00
2010,10,16,12,29,13.10
2010,10,16,12,30,13.10
2010,10,16,12,31,13.20
2010,10,16,12,32,13.20
2010,10,16,12,33,13.20
2010,10,16,12,34,13.20
2010,10,16,12,35,13.20
2010,10,16,12,36,13.20
2010,10,16,12,37,13.20
2010,10,16,12,38,13.30
2010,10,16,12,39,13.30
2010,10,16,12,40,13.40
2010,10,16,12,41,13.40
2010,10,16,12,42,13.40
2010,10,16,12,43,13.40
2010,10,16,12,44,13.40
2010,10,16,12,45,13.40
2010,10,16,12,46,13.40
2010,10,16,12,47,13.50
2010,10,16,12,48,13.50
2010,10,16,12,49,13.60
2010,10,16,12,50,13.60
2010,10,16,12,51,13.60
2010,10,16,12,52,13.60
2010,10,16,12,53,13.60
2010,10,16,12,54,13.70
2010,10,16,12,55,13.70
2010,10,16,12,56,13.70
2010,10,16,12,57,13.70
2010,10,16,12,58,13.60
2010,10,16,12,59,13.60
2010,10,16,13,00,13.60
2010,10,16,13,01,13.70
2010,10,16,13,02,13.70
2010,10,16,13,03,13.70
2010,10,16,13,04,13.80
2010,10,16,13,05,13.80
2010,10,16,13,06,13.90
2010,10,16,13,07,13.90
2010,10,16,13,08,13.90
2010,10,16,13,09,13.90
2010,10,16,13,10,13.90
2010,10,16,13,11,13.90
2010,10,16,13,12,13.90
2010,10,16,13,13,13.90
2010,10,16,13,14,13.80
2010,10,16,13,15,13.80
2010,10,16,13,16,13.90
2010,10,16,13,17,13.90
2010,10,16,13,18,13.90
2010,10,16,13,19,13.90
2010,10,16,13,20,14.00
2010,10,16,13,21,14.00
2010,10,16,13,22,14.10
2010,10,16,13,23,14.10
2010,10,16,13,24,14.10
2010,10,16,13,25,14.10
2010,10,16,13,26,14.10
2010,10,16,13,27,14.10
2010,10,16,13,28,14.10
2010,10,16,13,29,14.10
2010,10,16,13,30,14.00
2010,10,16,13,31,14.00
2010,10,16,13,32,13.90
2010,10,16,13,33,13.90
2010,10,16,13,34,13.90
2010,10,16,13,35,13.90
2010,10,16,13,36,13.90
2010,10,16,13,37,13.80
2010,10,16,13,38,13.80
2010,10,16,13,39,13.90
2010,10,16,13,40,13.90
2010,10,16,13,41,13.90
2010,10,16,13,42,14.00
2010,10,16,13,43,14.00
2010,10,16,13,44,14.10
2010,10,16,13,45,14.10
2010,10,16,13,46,14.10
2010,10,16,13,47,14.10
2010,10,16,13,48,14.10
2010,10,16,13,49,14.10
2010,10,16,13,50,14.10
2010,10,16,13,51,14.10
2010,10,16,13,52,14.10
2010,10,16,13,53,14.10
2010,10,16,13,54,14.10
2010,10,16,13,55,14.10
2010,10,16,13,56,14.10
2010,10,16,13,57,14.20
2010,10,16,13,58,14.20
2010,10,16,13,59,14.10
2010,10,16,14,00,14.10
2010,10,16,14,01,14.10
2010,10,16,14,02,14.10
2010,10,16,14,03,14.10
2010,10,16,14,04,14.00
2010,10,16,14,05,14.00
2010,10,16,14,06,14.00
2010,10,16,14,07,14.00
2010,10,16,14,08,14.00
2010,10,16,14,09,14.00
2010,10,16,14,10,13.90
2010,10,16,14,11,13.90
2010,10,16,14,12,13.90
2010,10,16,14,13,13.90
2010,10,16,14,14,13.90
2010,10,16,14,15,14.00
2010,10,16,14,16,14.00
2010,10,16,14,17,14.00
2010,10,16,14,18,14.00
2010,10,16,14,19,14.00
2010,10,16,14,20,14.00
2010,10,16,14,21,14.00
2010,10,16,14,22,14.00
2010,10,16,14,23,14.10
2010,10,16,14,24,14.10
2010,10,16,14,25,14.00
2010,10,16,14,26,14.00
2010,10,16,14,27,14.00
2010,10,16,14,28,14.00
2010,10,16,14,29,14.00
2010,10,16,14,30,14.00
2010,10,16,14,31,14.00
2010,10,16,14,32,14.00
2010,10,16,14,33,14.00
2010,10,16,14,34,14.00
2010,10,16,14,35,14.00
2010,10,16,14,36,14.10
2010,10,16,14,37,14.10
2010,10,16,14,38,14.10
2010,10,16,14,39,14.10
2010,10,16,14,40,14.10
2010,10,16,14,41,14.10
2010,10,16,14,42,14.20
2010,10,16,14,43,14.20
2010,10,16,14,44,14.30
2010,10,16,14,45,14.30
2010,10,16,14,46,14.30
2010,10,16,14,47,14.20
2010,10,16,14,48,14.20
2010,10,16,14,49,14.20
2010,10,16,14,50,14.20
2010,10,16,14,51,14.20
2010,10,16,14,52,14.30
2010,10,16,14,53,14.30
2010,10,16,14,54,14.30
2010,10,16,14,55,14.30
2010,10,16,14,56,14.30
2010,10,16,14,57,14.30
2010,10,16,14,58,14.30
2010,10,16,14,59,14.30
2010,10,16,15,00,14.30
2010,10,16,15,01,14.30
2010,10,16,15,02,14.30
2010,10,16,15,03,14.30
2010,10,16,15,04,14.30
2010,10,16,15,05,14.30
2010,10,16,15,06,14.30
2010,10,16,15,07,14.40
2010,10,16,15,08,14.40
2010,10,16,15,09,14.40
2010,10,16,15,10,14.50
2010,10,16,15,11,14.40
2010,10,16,15,12,14.50
2010,10,16,15,13,14.50
2010,10,16,15,14,14.50
2010,10,16,15,15,14.50
2010,10,16,15,16,14.50
2010,10,16,15,17,14.50
2010,10,16,15,18,14.50
2010,10,16,15,19,14.60
2010,10,16,15,20,14.60
2010,10,16,15,21,14.60
2010,10,16,15,22,14.60
2010,10,16,15,23,14.50
2010,10,16,15,24,14.50
2010,10,16,15,25,14.50
2010,10,16,15,26,14.40
2010,10,16,15,27,14.40
2010,10,16,15,28,14.40
2010,10,16,15,29,14.40
2010,10,16,15,30,14.40
2010,10,16,15,31,14.40
2010,10,16,15,32,14.40
2010,10,16,15,33,14.40
2010,10,16,15,34,14.40
2010,10,16,15,35,14.40
2010,10,16,15,36,14.40
2010,10,16,15,37,14.40
2010,10,16,15,38,14.40
2010,10,16,15,39,14.40
2010,10,16,15,40,14.40
2010,10,16,15,41,14.40
2010,10,16,15,42,14.40
2010,10,16,15,43,14.40
2010,10,16,15,44,14.40
2010,10,16,15,45,14.40
2010,10,16,15,46,14.40
2010,10,16,15,47,14.40
2010,10,16,15,48,14.50
2010,10,16,15,49,14.50
2010,10,16,15,50,14.40
2010,10,16,15,51,14.30
2010,10,16,15,52,14.30
2010,10,16,15,53,14.30
2010,10,16,15,54,14.30
2010,10,16,15,55,14.30
2010,10,16,15,56,14.30
2010,10,16,15,57,14.30
2010,10,16,15,58,14.30
2010,10,16,15,59,14.30
2010,10,16,16,00,14.30
2010,10,16,16,01,14.20
2010,10,16,16,02,14.20
2010,10,16,16,03,14.30
2010,10,16,16,04,14.30
2010,10,16,16,05,14.30
2010,10,16,16,06,14.30
2010,10,16,16,07,14.30
2010,10,16,16,08,14.30
2010,10,16,16,09,14.30
2010,10,16,16,10,14.30
2010,10,16,16,11,14.20
2010,10,16,16,12,14.30
2010,10,16,16,13,14.30
2010,10,16,16,14,14.30
2010,10,16,16,15,14.30
2010,10,16,16,16,14.30
2010,10,16,16,17,14.30
2010,10,16,16,18,14.30
2010,10,16,16,19,14.30
2010,10,16,16,20,14.30
2010,10,16,16,21,14.20
2010,10,16,16,22,14.20
2010,10,16,16,23,14.20
2010,10,16,16,24,14.20
2010,10,16,16,25,14.20
2010,10,16,16,26,14.20
2010,10,16,16,27,14.20
2010,10,16,16,28,14.20
2010,10,16,16,29,14.20
2010,10,16,16,30,14.10
2010,10,16,16,31,14.10
2010,10,16,16,32,14.10
2010,10,16,16,33,14.10
2010,10,16,16,34,14.10
2010,10,16,16,35,14.10
2010,10,16,16,36,14.10
2010,10,16,16,37,14.10
2010,10,16,16,38,14.10
2010,10,16,16,39,14.10
2010,10,16,16,40,14.00
2010,10,16,16,41,14.00
2010,10,16,16,42,14.00
2010,10,16,16,43,14.00
2010,10,16,16,44,13.90
2010,10,16,16,45,13.90
2010,10,16,16,46,13.90
2010,10,16,16,47,13.90
2010,10,16,16,48,13.90
2010,10,16,16,49,13.90
2010,10,16,16,50,13.80
2010,10,16,16,51,13.80
2010,10,16,16,52,13.80
2010,10,16,16,53,13.80
2010,10,16,16,54,13.80
2010,10,16,16,55,13.80
2010,10,16,16,56,13.80
2010,10,16,16,57,13.80
2010,10,16,16,58,13.80
2010,10,16,16,59,13.80
2010,10,16,17,00,13.80
2010,10,16,17,01,13.80
2010,10,16,17,02,13.80
2010,10,16,17,03,13.80
2010,10,16,17,04,13.80
2010,10,16,17,05,13.80
2010,10,16,17,06,13.80
2010,10,16,17,07,13.80
2010,10,16,17,08,13.70
2010,10,16,17,09,13.70
2010,10,16,17,10,13.70
2010,10,16,17,11,13.60
2010,10,16,17,12,13.60
2010,10,16,17,13,13.60
2010,10,16,17,14,13.60
2010,10,16,17,15,13.50
2010,10,16,17,16,13.50
2010,10,16,17,17,13.50
2010,10,16,17,18,13.50
2010,10,16,17,19,13.50
2010,10,16,17,20,13.40
2010,10,16,17,21,13.40
2010,10,16,17,22,13.40
2010,10,16,17,23,13.40
2010,10,16,17,24,13.40
2010,10,16,17,25,13.40
2010,10,16,17,26,13.40
2010,10,16,17,27,13.30
2010,10,16,17,28,13.30
2010,10,16,17,29,13.30
2010,10,16,17,30,13.30
2010,10,16,17,31,13.20
2010,10,16,17,32,13.20
2010,10,16,17,33,13.20
2010,10,16,17,34,13.20
2010,10,16,17,35,13.10
2010,10,16,17,36,13.10
2010,10,16,17,37,13.00
2010,10,16,17,38,13.00
2010,10,16,17,39,13.00
2010,10,16,17,40,12.90
2010,10,16,17,41,12.80
2010,10,16,17,42,12.80
2010,10,16,17,43,12.70
2010,10,16,17,44,12.70
2010,10,16,17,45,12.60
2010,10,16,17,46,12.60
2010,10,16,17,47,12.50
2010,10,16,17,48,12.50
2010,10,16,17,49,12.40